Weather in Borovsky

Russia / Tyumen Oblast     57°02′37″N   65°43′19″E
temp.,
°C
wind,
m/s
gust,
m/s
humid.,
%
clouds,
%
prec.,
mm/h
press.,
hPa
HPBL,
m
5 march, fri
fri523:00−6wsw41090100 0.2 997337
02:00−11sw36928 0.0 998122
05:00−11s399137 0.0 997206
08:00−8s51292100 0.4 994728
11:00−2wsw61180100 1.1 9931111
14:00−1wsw6108299 0.2 9951213
17:00−2sw5118198 0.3 998876
20:00−4sw41186100 0.0 998388
6 march, sat
sat623:00−6sw2391100 0.0 99889
02:00−8w3891100 0.0 999233
05:00−11w4129176 0.0 1002347
08:00−13w5138820 0.0 1004475
11:00−8w5108110 0.0 1005681
14:00−6w597748 0.0 10061231
17:00−7wsw598674 0.1 10061209
20:00−9wsw41188100 0.2 1007721
7 march, sun
sun723:00−12w41188100 0.3 1009429
02:00−15wsw410911 0.0 1010278
05:00−18wsw36941 0.0 1012112
08:00−19sw23940 0.0 101349
11:00−12ssw248434 0.0 1013313
14:00−9se2383100 0.0 1011393
17:00−10e2495100 0.3 1008268
20:00−9ne3795100 1.2 1005364
8 march, mon
mon823:00−10nne4895100 2.4 1002359
02:00−11nnw4994100 1.3 1000448
05:00−13nw51093100 1.6 1003386
08:00−18wnw4995100 0.1 1005255
11:00−14wnw479190 0.1 1007359
14:00−10w358481 0.0 1008741
17:00−10sw468891 0.1 1008700
20:00−14ssw3892100 0.0 1009234
9 march, tue
tue923:00−16s259698 0.0 100986
02:00−14s379695 0.1 1009230
05:00−14s269789 0.2 1009144
08:00−14sse2697100 0.0 1007169
11:00−8se51194100 0.3 1003488
14:00−5s71492100 1.9 9981177
17:00−5sw6157787 2.9 9961881
20:00−6wsw71585100 0.1 9981025